Flag for India Weather past 2 weeks in Jalpaiguri, West Bengal, India

Now
100 °F

Haze.


Feels Like: 102 °F
Forecast: 69 / 87 °F
Wind: 8 mph from West

Location: Lucknow / Amausi

Current Time: Apr 18, 2015 at 2:20:59 PM

Latest Report: Apr 18, 2015 at 1:30 PM


Visibility: 4 mi

Pressure: 29.59 "Hg

Humidity: 29%

Dew point: 63 °F

Location of JalpaiguriLocation

Historic Weather in Jalpaiguri — Graph

°F

Jalpaiguri temperature yesterday

Maximum temperature yesterday: 95 °F (at 2:00 PM)
Minimum temperature yesterday: 73 °F (at 4:00 AM)
Average temperature yesterday: 85 °F

Past Weeks' High & Low Weather Summary

 TemperatureHumidityPressure
High102 °F (Apr 11, 3:30 PM)94% (Apr 13, 2:00 AM)30.01 "Hg (Apr 13, 2:00 AM)
Low63 °F (Apr 8, 6:30 AM)17% (Apr 11, 3:30 PM)29.56 "Hg (Apr 4, 2:00 AM)
Average81 °F53%29.80 "Hg
* Reported Apr 3 12:30 PM — Apr 18 12:30 PM, Jalpaiguri, Weather by CustomWeather, © 2015

Note: Actual official high and low records may vary slightly from our data, if they occured in-between our weather recording intervals... More about our weather records

Advertising

Jalpaiguri weather history for previous 24 hours

 ConditionsComfort  
Time TempWeatherWind HumidityBarometerVisibility
12:30 PM
Sat, Apr 18
97 °FHaze.9 mph32%29.62 "Hg3 mi
11:30 AM95 °FHaze.5 mph36%29.65 "Hg3 mi
11:00 AM93 °FHaze.3 mph39%29.65 "Hg3 mi
10:30 AM93 °FHaze.5 mph36%29.68 "Hg3 mi
10:00 AM91 °FHaze.5 mph41%29.68 "Hg3 mi
9:30 AM90 °FHaze.3 mph43%29.68 "Hg3 mi
8:30 AM82 °FHaze.3 mph55%29.68 "Hg3 mi
8:00 AM79 °FHaze.No wind61%29.68 "Hg2 mi
7:30 AM77 °FHaze.No wind39%29.65 "Hg2 mi
7:00 AM75 °FHaze.No wind69%29.65 "Hg2 mi
6:30 AM73 °FHaze.No wind69%29.65 "Hg2 mi
6:00 AM73 °FHaze.No wind65%29.62 "Hg2 mi
5:30 AM73 °FHaze.No wind65%29.62 "Hg2 mi
5:00 AM73 °FHaze.No wind69%29.62 "Hg2 mi
4:00 AM73 °FHaze.No wind69%29.62 "Hg2 mi
3:00 AM73 °FHaze.No wind69%29.62 "Hg2 mi
2:00 AM73 °FHaze.No wind74%29.62 "Hg2 mi
1:00 AM75 °FHaze.No wind69%29.65 "Hg2 mi
12:00 AM79 °FHaze.No wind58%29.65 "Hg2 mi
11:00 PM
Fri, Apr 17
79 °FHaze.No wind58%29.68 "Hg2 mi
10:00 PM81 °FHaze.2 mph54%29.68 "Hg2 mi
9:00 PM82 °FHaze.2 mph48%29.68 "Hg2 mi
8:30 PM84 °FHaze.2 mph48%29.65 "Hg2 mi
8:00 PM84 °FHaze.2 mph48%29.65 "Hg2 mi
7:30 PM86 °FHaze.2 mph46%29.65 "Hg2 mi
7:00 PM88 °FHaze.3 mph43%29.65 "Hg3 mi
6:30 PM90 °FHaze.5 mph41%29.65 "Hg3 mi
6:00 PM91 °FHaze.6 mph38%29.65 "Hg3 mi
5:30 PM93 °FHaze.9 mph36%29.62 "Hg3 mi
5:00 PM93 °FHaze.14 mph36%29.62 "Hg3 mi
4:30 PM95 °FHaze.13 mph34%29.65 "Hg3 mi
4:00 PM95 °FHaze.14 mph34%29.65 "Hg3 mi
3:30 PM95 °FScattered clouds.13 mph36%29.65 "Hg3 mi
3:00 PM95 °FScattered clouds.12 mph36%29.68 "Hg3 mi
2:30 PM95 °FScattered clouds.13 mph36%29.71 "Hg3 mi
2:00 PM95 °FHaze.12 mph34%29.71 "Hg3 mi
Weather by CustomWeather, © 2015

See weather overviewHow to use our weather pages